Weather History for Mandan, ND

Change the Weather History Date:

Monday, January 7, 2013

  Actual Average (KBIS) Record (KBIS)
Temperature  
Mean Temperature 24 °F 12 °F  
Max Temperature 33 °F 23 °F 56 °F (1914)
Min Temperature 15 °F 2 °F -40 °F (1887)
Degree Days  
Heating Degree Days 41 53  
Month to date heating degree days 366  
Since 1 July heating degree days 3866  
Cooling Degree Days 0 0  
Month to date cooling degree days 0  
Year to date cooling degree days 0  
Moisture  
Dew Point 21 °F    
Average Humidity 78    
Maximum Humidity 100    
Minimum Humidity 64    
Precipitation  
Precipitation 0.00 in 0.01 in 0.22 in (1875)
Month to date precipitation 0.11  
Year to date precipitation 0.11  
Snow  
Snow 0.00 in 0.40 in 4.20 in (1977)
Month to date snowfall 2.3  
Since 1 July snowfall 22.8  
Snow Depth -    
Sea Level Pressure  
Sea Level Pressure 29.82 in    
Wind  
Wind Speed 16 mph (WSW)    
Max Wind Speed 23 mph    
Max Gust Speed 29 mph    
Visibility 10 miles    
Events      
T = Trace of Precipitation, MM = Missing Value Source: NWS Daily Summary

Daily Weather History Graph

Daily Weather History Graph

Search for Another Location

Airport:

Trip Planner

Search our weather history database for the weather conditions in past years. The results will help you decide how hot, cold, wet, or windy it might be!

Date:

Astronomy

Jan. 07, 2013 Rise Set
Actual Time 8:27 AM CST 5:12 PM CST
Civil Twilight 7:52 AM CST 5:47 PM CST
Nautical Twilight 7:14 AM CST 6:25 PM CST
Astronomical Twilight 6:38 AM CST 7:02 PM CST
Moon 3:49 AM CST (1/7) 1:28 PM CST (1/7)
Length of Visible Light 9h 54m
Length of Day
8h 45m
Waning Crescent, 22% of the Moon is Illuminated
Jan 7
Waning Crescent
Jan 11
New
Jan 18
First Quarter
Jan 26
Full
Feb 3
Last Quarter

Hourly Weather History & Observations

Time (CST) Temp. Windchill Dew Point Humidity Pressure Visibility Wind Dir Wind Speed Gust Speed Precip Events Conditions
12:15 AM 32.0 °F 20.5 °F 23.0 °F 69% 29.76 in 10.0 mi West 18.4 mph - N/A   Mostly Cloudy
12:35 AM 32.0 °F 20.5 °F 23.0 °F 69% 29.76 in 10.0 mi West 18.4 mph - N/A   Partly Cloudy
12:55 AM 32.0 °F 21.6 °F 23.0 °F 69% 29.76 in 10.0 mi West 15.0 mph - N/A   Clear
1:35 AM 32.0 °F 21.6 °F 23.0 °F 69% 29.77 in 10.0 mi WSW 15.0 mph 19.6 mph N/A   Partly Cloudy
1:55 AM 28.4 °F 18.0 °F 23.0 °F 80% 29.77 in 10.0 mi WSW 12.7 mph 17.3 mph N/A   Partly Cloudy
2:15 AM 30.2 °F 18.5 °F 23.0 °F 75% 29.78 in 10.0 mi West 17.3 mph - N/A   Clear
2:35 AM 30.2 °F 16.8 °F 23.0 °F 75% 29.78 in 10.0 mi West 23.0 mph 27.6 mph N/A   Clear
2:55 AM 32.0 °F 19.5 °F 23.0 °F 69% 29.79 in 10.0 mi West 21.9 mph 27.6 mph N/A   Clear
3:15 AM 30.2 °F 17.1 °F 23.0 °F 75% 29.78 in 10.0 mi West 21.9 mph 25.3 mph N/A   Clear
3:35 AM 32.0 °F 19.2 °F 23.0 °F 69% 29.79 in 10.0 mi West 23.0 mph 27.6 mph N/A   Clear
3:55 AM 32.0 °F 20.1 °F 23.0 °F 69% 29.79 in 10.0 mi West 19.6 mph - N/A   Clear
4:15 AM 28.4 °F 17.0 °F 21.2 °F 74% 29.79 in 10.0 mi West 15.0 mph - N/A   Clear
4:35 AM 28.4 °F 16.2 °F 21.2 °F 74% 29.79 in 10.0 mi West 17.3 mph - N/A   Clear
4:55 AM 28.4 °F 15.4 °F 21.2 °F 74% 29.79 in 10.0 mi West 19.6 mph - N/A   Clear
5:15 AM 28.4 °F 16.6 °F 21.2 °F 74% 29.79 in 10.0 mi West 16.1 mph - N/A   Clear
5:35 AM 28.4 °F 15.8 °F 21.2 °F 74% 29.80 in 10.0 mi West 18.4 mph - N/A   Clear
5:55 AM 28.4 °F 16.6 °F 21.2 °F 74% 29.80 in 10.0 mi West 16.1 mph - N/A   Clear
6:35 AM 26.6 °F 14.3 °F 19.4 °F 74% 29.80 in 10.0 mi West 16.1 mph - N/A   Clear
6:55 AM 26.6 °F 13.4 °F 19.4 °F 74% 29.80 in 10.0 mi West 18.4 mph - N/A   Clear
7:15 AM 26.6 °F 13.8 °F 19.4 °F 74% 29.81 in 10.0 mi West 17.3 mph - N/A   Clear
7:35 AM 28.4 °F 17.0 °F 19.4 °F 69% 29.82 in 10.0 mi West 15.0 mph 20.7 mph N/A   Clear
7:55 AM 26.6 °F 14.7 °F 19.4 °F 74% 29.82 in 10.0 mi West 15.0 mph - N/A   Clear
8:15 AM 26.6 °F 13.8 °F 19.4 °F 74% 29.82 in 10.0 mi West 17.3 mph - N/A   Clear
8:35 AM 26.6 °F 13.8 °F 19.4 °F 74% 29.82 in 10.0 mi West 17.3 mph - N/A   Clear
8:55 AM 26.6 °F 15.2 °F 19.4 °F 74% 29.83 in 10.0 mi West 13.8 mph - N/A   Clear
9:15 AM 26.6 °F 13.8 °F 19.4 °F 74% 29.84 in 10.0 mi West 17.3 mph - N/A   Clear
9:35 AM 28.4 °F 17.0 °F 19.4 °F 69% 29.84 in 10.0 mi West 15.0 mph - N/A   Clear
9:55 AM 28.4 °F 16.6 °F 19.4 °F 69% 29.84 in 10.0 mi WSW 16.1 mph - N/A   Clear
10:15 AM 28.4 °F 18.0 °F 19.4 °F 69% 29.84 in 10.0 mi West 12.7 mph - N/A   Clear
10:35 AM 28.4 °F 17.0 °F 19.4 °F 69% 29.85 in 10.0 mi West 15.0 mph - N/A   Clear
10:55 AM 30.2 °F 16.8 °F 19.4 °F 64% 29.86 in 10.0 mi West 23.0 mph - N/A   Clear
11:15 AM 30.2 °F 18.5 °F 19.4 °F 64% 29.85 in 10.0 mi West 17.3 mph - N/A   Clear
11:35 AM 30.2 °F 17.1 °F 21.2 °F 69% 29.85 in 10.0 mi West 21.9 mph - N/A   Clear
11:55 AM 30.2 °F 18.1 °F 21.2 °F 69% 29.85 in 10.0 mi West 18.4 mph - N/A   Partly Cloudy
12:15 PM 30.2 °F 17.8 °F 23.0 °F 75% 29.84 in 10.0 mi West 19.6 mph - N/A   Scattered Clouds
12:35 PM 30.2 °F 18.1 °F 23.0 °F 75% 29.84 in 10.0 mi West 18.4 mph - N/A   Partly Cloudy
1:15 PM 32.0 °F 20.1 °F 23.0 °F 69% 29.83 in 10.0 mi West 19.6 mph - N/A   Clear
1:35 PM 32.0 °F 19.2 °F 23.0 °F 69% 29.83 in 10.0 mi West 23.0 mph 27.6 mph N/A   Clear
1:55 PM 32.0 °F 19.2 °F 23.0 °F 69% 29.82 in 10.0 mi West 23.0 mph 28.8 mph N/A   Clear
2:15 PM 33.8 °F 21.9 °F 23.0 °F 65% 29.83 in 10.0 mi West 21.9 mph - N/A   Clear
2:35 PM 32.0 °F 21.2 °F 24.8 °F 75% 29.83 in 10.0 mi West 16.1 mph - N/A   Clear
2:55 PM 32.0 °F 21.6 °F 24.8 °F 75% 29.84 in 10.0 mi West 15.0 mph - N/A   Clear
3:15 PM 32.0 °F 21.2 °F 24.8 °F 75% 29.84 in 10.0 mi West 16.1 mph - N/A   Clear
3:35 PM 32.0 °F 22.1 °F 23.0 °F 69% 29.84 in 10.0 mi West 13.8 mph - N/A   Clear
3:55 PM 32.0 °F 23.6 °F 23.0 °F 69% 29.84 in 10.0 mi West 10.4 mph - N/A   Clear
4:15 PM 30.2 °F 20.8 °F 23.0 °F 75% 29.85 in 10.0 mi West 11.5 mph - N/A   Clear
4:35 PM 30.2 °F 21.3 °F 23.0 °F 75% 29.85 in 10.0 mi West 10.4 mph - N/A   Clear
5:15 PM 26.6 °F 18.2 °F 21.2 °F 80% 29.85 in 10.0 mi WSW 8.1 mph - N/A   Clear
5:35 PM 24.8 °F 16.9 °F 21.2 °F 86% 29.85 in 10.0 mi WSW 6.9 mph - N/A   Clear
5:55 PM 26.6 °F - 23.0 °F 86% 29.85 in 10.0 mi Calm Calm - N/A   Clear
6:15 PM 26.6 °F 21.2 °F 23.0 °F 86% 29.85 in 10.0 mi WSW 4.6 mph - N/A   Clear
6:35 PM 24.8 °F 16.9 °F 21.2 °F 86% 29.85 in 10.0 mi WSW 6.9 mph - N/A   Clear
6:55 PM 23.0 °F 17.0 °F 19.4 °F 86% 29.85 in 10.0 mi West 4.6 mph - N/A   Clear
7:15 PM 23.0 °F 17.0 °F 21.2 °F 93% 29.85 in 10.0 mi WSW 4.6 mph - N/A   Clear
7:35 PM 21.2 °F 13.6 °F 19.4 °F 93% 29.84 in 10.0 mi West 5.8 mph - N/A   Clear
7:55 PM 17.6 °F 7.3 °F 17.6 °F 100% 29.85 in 10.0 mi WSW 8.1 mph - N/A   Clear
8:15 PM 21.2 °F 12.6 °F 19.4 °F 93% 29.84 in 10.0 mi WSW 6.9 mph - N/A   Clear
8:35 PM 23.0 °F 15.8 °F 21.2 °F 93% 29.83 in 10.0 mi WSW 5.8 mph - N/A   Clear
8:55 PM 19.4 °F 12.8 °F 17.6 °F 93% 29.83 in 10.0 mi South 4.6 mph - N/A   Clear
9:15 PM 19.4 °F 11.5 °F 19.4 °F 100% 29.83 in 10.0 mi South 5.8 mph - N/A   Clear
9:35 PM 19.4 °F 10.4 °F 17.6 °F 93% 29.82 in 10.0 mi South 6.9 mph - N/A   Clear
9:55 PM 19.4 °F 7.9 °F 17.6 °F 93% 29.81 in 10.0 mi SSW 10.4 mph - N/A   Clear
10:15 PM 17.6 °F 7.3 °F 15.8 °F 93% 29.81 in 10.0 mi SSW 8.1 mph - N/A   Clear
10:35 PM 19.4 °F 11.5 °F 17.6 °F 93% 29.80 in 10.0 mi South 5.8 mph - N/A   Clear
10:55 PM 17.6 °F 5.7 °F 15.8 °F 93% 29.80 in 10.0 mi South 10.4 mph - N/A   Clear
11:15 PM 17.6 °F 6.4 °F 15.8 °F 93% 29.79 in 10.0 mi SSE 9.2 mph - N/A   Clear
11:35 PM 15.8 °F 4.2 °F 15.8 °F 100% 29.78 in 10.0 mi SE 9.2 mph - N/A   Clear
11:55 PM 15.8 °F 5.1 °F 15.8 °F 100% 29.77 in 10.0 mi South 8.1 mph - N/A   Clear